Regional Weather Roundup
Issued by NWS

Home | Current Version | Previous Version | Text Only | Print | Product List | Glossary On
Versions: 1 2 3 4 5 6 7 8 9 10 11 12 13 14 15 16 17 18 19 20 21 22 23 24 25 26 27 28 29 30 31 32 33 34 35 36 37 38 39 40 41 42 43 44 45 46 47 48 49 50
000
ASUS43 KDMX 270207
RWRIA

WEATHER ROUNDUP FOR IOWA
NATIONAL WEATHER SERVICE DES MOINES IA
900 PM CDT SUN APR 26 2015

NOTE: "FAIR" INDICATES FEW OR NO CLOUDS BELOW 12,000 FEET WITH NO
SIGNIFICANT WEATHER AND/OR OBSTRUCTIONS TO VISIBILITY.

* - THESE STATIONS ARE NOT NWS STATIONS...THUS NOT UNDER NWS
QUALITY CONTROL.  THEY ALSO DO NOT REPORT WEATHER SUCH
AS PRECIPITATION OR FOG.

IAZ001>003-012>014-020>022-031>034-043>046-270300-
   NORTHWEST IOWA

CITY           SKY/WX    TMP DP  RH WIND       PRES   REMARKS
CARROLL *      CLEAR     50  34  53 E6        30.05R
CHEROKEE *     CLEAR     56  32  40 NE7       30.05R
DENISON *      CLEAR     54  32  43 E7        30.03R
LE MARS *      CLEAR     61  30  31 E7        30.06R
ORANGE CITY *  CLEAR     55  30  38 NE3       30.06R
SHELDON *      CLEAR     50  27  40 NE8       30.05R
SIOUX CITY     CLEAR     60  30  32 E5        30.04R
SPENCER        CLEAR     52  32  46 E8        30.06R
STORM LAKE *   CLEAR     52  32  46 E9        30.06R
$$

IAZ055>058-069>071-079>083-090>094-270300-
   SOUTHWEST IOWA

CITY           SKY/WX    TMP DP  RH WIND       PRES   REMARKS
ATLANTIC *     CLEAR     52  34  50 NE3       30.04R
AUDUBON *      CLEAR     48  37  66 CALM      30.06R
CLARINDA *     CLEAR     55  34  44 NE6       30.03R
COUNCIL BLFS * CLEAR     54  36  50 E10       30.04R
CRESTON *      CLEAR     48  34  57 E9        30.04R
HARLAN  *      CLEAR     52  36  54 E5        30.07S
LAMONI         CLEAR     50  31  48 NE9       30.03R
RED OAK *      CLEAR     52  36  54 NE7       30.03R
SHENANDOAH *   CLEAR     52  34  50 NE8       30.03R
$$

IAZ047>049-059>061-072>074-084-270300-
   CENTRAL IOWA

CITY           SKY/WX    TMP DP  RH WIND       PRES   REMARKS
AMES           CLEAR     53  28  38 NE5       30.06R
ANKENY *       CLEAR     52  32  46 NE5       30.05R
CHARITON *     CLEAR     52  34  50 E6        30.04R
DES MOINES     PTCLDY    55  25  31 NE7       30.05R
GRINNELL*      CLEAR     50  32  50 NE5       30.05R
KNOXVILLE *    CLEAR     54  30  40 NE5       30.03R
MARSHALLTOWN   CLEAR     49  29  46 NE6       30.05R
PELLA *        CLEAR     53  36  53 E3        30.06R
PERRY *          N/A     54  31  42 E6        30.05R
$$

IAZ004>006-015-016-023>025-035-036-270300-
   NORTH CENTRAL IOWA

CITY           SKY/WX    TMP DP  RH WIND       PRES   REMARKS
ALGONA *       CLEAR     54  32  43 E7        30.08R
CLARION *      CLEAR     50  30  46 NE8       30.07R
ESTHERVILLE    CLEAR     46  28  49 NE9       30.07R
FORT DODGE *   CLEAR     48  32  53 E8        30.07R
MASON CITY     CLEAR     46  31  55 NE8       30.09R
FOREST CITY *    N/A     48  32  53 CALM      30.08R
IOWA FALLS *     N/A     51  30  45 NE5       30.07R
$$

IAZ007>011-017>019-026>030-037>042-050>054-066-270300-
   NORTHEAST IOWA

CITY           SKY/WX    TMP DP  RH WIND       PRES   REMARKS
CEDAR RAPIDS   CLEAR     52  30  43 NE6       30.04R
CHARLES CITY * CLEAR     50  30  46 NE6       30.07S
CLINTON *      CLEAR     46  34  61 NE5       30.05R
DECORAH *      CLEAR     54  25  32 N7        30.05R
DUBUQUE        CLEAR     47  30  51 CALM      30.04R
MONTICELLO *   CLEAR     50  34  53 CALM      30.04R
OELWEIN *      CLEAR     50  30  46 NE6       30.07R
WATERLOO       CLEAR     47  30  51 N6        30.06R
$$

IAZ064-065-067-068-078-270300-
   EAST CENTRAL IOWA

CITY           SKY/WX    TMP DP  RH WIND       PRES   REMARKS
DAVENPORT      CLEAR     51  32  48 N6        30.04R
IOWA CITY      CLEAR     54  30  40 NE3       30.05R
MT. PLEASANT * CLEAR     47  36  63 NE5       30.04R
MUSCATINE *    CLEAR     50  36  57 CALM      30.04R
QUAD CITIES    CLEAR     47  36  65 CALM      30.03R
$$

IAZ062-063-075>077-085>089-095>099-270300-
   SOUTHEAST IOWA

CITY           SKY/WX    TMP DP  RH WIND       PRES   REMARKS
BURLINGTON     CLEAR     50  35  56 NE5       30.03R
FAIRFIELD *    CLEAR     50  32  50 NE6       30.04R
FORT MADISON *   N/A     52  34  50 CALM      30.04R
KEOKUK *       CLEAR     52  36  54 E6        30.03R
OSKALOOSA *      N/A     49  34  54 E5        30.05R
CENTERVILLE *    N/A     48  36  61 NE6       30.05R
OTTUMWA        CLEAR     50  35  56 NE5       30.04R
WASHINGTON *   CLEAR     50  37  62 NE3       30.04R
$$

ABBREVIATIONS USED IN REMARKS
   TC - TEMPERATURES IN CELSIUS
  WCI - WIND CHILL INDEX
   HX - HEAT INDEX
  VSB - VISIBILITY
$$



USA.gov is the U.S. government's official web portal to all federal, state and local government web resources and services.